When you browse on this site, cookies collect data to enhance your experience and personalize the content and advertising you see.
Visit our Privacy Policy to learn more. By continuing to use the site, you agree to this use of cookies and data.
  • In Romania
  • List of Countries
  • For 7 days
  • Water Temperature
  • Weather Map
  • Weather Widgets
  • user-avatar
    Login

    Hourly Weather Tonton

    Today, 5 June, Friday

    Time Temperature Precipitation Wind Pressure Humidity
    00:00 +11°C° 0 mm 4 mps 748 mmHg 96%
    01:00 +11°C° 0.1 mm 4 mps 748 mmHg 95%
    02:00 +11°C° 0.1 mm 4 mps 747 mmHg 95%
    03:00 +10°C° 0.1 mm 5 mps 747 mmHg 94%
    04:00 +10°C° 0 mm 5 mps 747 mmHg 92%
    05:00 +10°C° 0 mm 6 mps 747 mmHg 90%
    06:00 +10°C° 0 mm 6 mps 747 mmHg 88%
    07:00 +10°C° 0.1 mm 7 mps 748 mmHg 82%
    08:00 +11°C° 0.1 mm 8 mps 748 mmHg 77%
    09:00 +11°C° 0.1 mm 8 mps 748 mmHg 72%
    10:00 +12°C° 0 mm 8 mps 748 mmHg 67%
    11:00 +13°C° 0 mm 8 mps 748 mmHg 62%
    12:00 +13°C° 0 mm 8 mps 748 mmHg 57%
    13:00 +13°C° 0 mm 8 mps 748 mmHg 57%
    14:00 +13°C° 0 mm 8 mps 748 mmHg 57%
    15:00 +13°C° 0 mm 8 mps 748 mmHg 57%
    16:00 +14°C° 0.1 mm 7 mps 748 mmHg 63%
    17:00 +12°C° 0.1 mm 7 mps 748 mmHg 68%
    18:00 +11°C° 0.1 mm 7 mps 748 mmHg 73%
    19:00 +10°C° 0.3 mm 6 mps 748 mmHg 78%
    20:00 +9°C° 0.3 mm 5 mps 748 mmHg 84%
    21:00 +7°C° 0.3 mm 4 mps 748 mmHg 90%
    22:00 +7°C° 0 mm 5 mps 749 mmHg 90%
    23:00 +6°C° 0 mm 5 mps 749 mmHg 90%

    Tomorrow, 6 June, Saturday

    Time Temperature Precipitation Wind Pressure Humidity
    00:00 +5°C° 0 mm 5 mps 749 mmHg 90%
    01:00 +5°C° 0 mm 5 mps 749 mmHg 90%
    02:00 +4°C° 0 mm 6 mps 749 mmHg 89%
    03:00 +3°C° 0 mm 6 mps 749 mmHg 89%
    04:00 +4°C° 0 mm 7 mps 749 mmHg 88%
    05:00 +4°C° 0 mm 7 mps 749 mmHg 88%
    06:00 +5°C° 0 mm 8 mps 749 mmHg 88%
    07:00 +6°C° 0.1 mm 8 mps 749 mmHg 87%
    08:00 +6°C° 0.1 mm 9 mps 749 mmHg 86%
    09:00 +7°C° 0.1 mm 10 mps 749 mmHg 86%
    10:00 +7°C° 0.2 mm 9 mps 749 mmHg 87%
    11:00 +8°C° 0.2 mm 9 mps 749 mmHg 89%
    12:00 +10°C° 0.2 mm 8 mps 749 mmHg 90%
    13:00 +10°C° 0.3 mm 8 mps 749 mmHg 90%
    14:00 +10°C° 0.3 mm 8 mps 749 mmHg 90%
    15:00 +11°C° 0.3 mm 8 mps 749 mmHg 91%
    16:00 +11°C° 0.1 mm 8 mps 749 mmHg 89%
    17:00 +11°C° 0.1 mm 8 mps 749 mmHg 87%
    18:00 +11°C° 0.1 mm 7 mps 749 mmHg 85%
    19:00 +10°C° 0 mm 7 mps 750 mmHg 87%
    20:00 +9°C° 0 mm 6 mps 750 mmHg 89%
    21:00 +9°C° 0 mm 5 mps 751 mmHg 92%
    22:00 +8°C° 0 mm 5 mps 751 mmHg 92%
    23:00 +8°C° 0 mm 4 mps 751 mmHg 93%

    Day after tomorrow, 7 June, Sunday

    Time Temperature Precipitation Wind Pressure Humidity
    00:00 +8°C° 0 mm 4 mps 752 mmHg 94%
    01:00 +7°C° 0 mm 4 mps 752 mmHg 94%
    02:00 +8°C° 0 mm 3 mps 752 mmHg 95%
    03:00 +8°C° 0 mm 3 mps 752 mmHg 95%
    04:00 +9°C° 0 mm 3 mps 752 mmHg 94%
    05:00 +10°C° 0 mm 3 mps 752 mmHg 94%
    06:00 +10°C° 0 mm 3 mps 753 mmHg 93%
    07:00 +12°C° 0.1 mm 3 mps 753 mmHg 89%
    08:00 +13°C° 0.1 mm 4 mps 753 mmHg 85%
    09:00 +14°C° 0.1 mm 4 mps 754 mmHg 81%
    10:00 +14°C° 0.2 mm 5 mps 754 mmHg 79%
    11:00 +15°C° 0.2 mm 5 mps 754 mmHg 77%
    12:00 +16°C° 0.2 mm 6 mps 755 mmHg 74%
    13:00 +16°C° 0.2 mm 6 mps 755 mmHg 74%
    14:00 +16°C° 0.2 mm 5 mps 755 mmHg 74%
    15:00 +16°C° 0.2 mm 5 mps 755 mmHg 73%
    16:00 +16°C° 0.2 mm 5 mps 755 mmHg 76%
    17:00 +15°C° 0.2 mm 5 mps 756 mmHg 79%
    18:00 +15°C° 0.2 mm 5 mps 756 mmHg 82%
    19:00 +14°C° 0.1 mm 5 mps 757 mmHg 86%
    20:00 +12°C° 0.1 mm 4 mps 757 mmHg 90%
    21:00 +11°C° 0.1 mm 4 mps 758 mmHg 93%
    22:00 +10°C° 0 mm 4 mps 758 mmHg 94%
    23:00 +10°C° 0 mm 4 mps 758 mmHg 94%

    8 June, Monday

    Time Temperature Precipitation Wind Pressure Humidity
    00:00 +8°C° 0 mm 4 mps 759 mmHg 94%
    01:00 +7°C° 0 mm 4 mps 759 mmHg 94%
    02:00 +8°C° 0 mm 3 mps 759 mmHg 94%
    03:00 +8°C° 0 mm 3 mps 759 mmHg 94%
    04:00 +8°C° 0 mm 3 mps 760 mmHg 93%
    05:00 +9°C° 0 mm 3 mps 760 mmHg 92%
    06:00 +9°C° 0 mm 3 mps 760 mmHg 91%
    07:00 +11°C° 0 mm 4 mps 761 mmHg 85%
    08:00 +12°C° 0 mm 4 mps 761 mmHg 80%
    09:00 +13°C° 0 mm 4 mps 762 mmHg 74%
    10:00 +14°C° 0 mm 4 mps 762 mmHg 71%
    11:00 +15°C° 0 mm 4 mps 762 mmHg 68%
    12:00 +17°C° 0 mm 4 mps 762 mmHg 65%
    13:00 +17°C° 0.1 mm 4 mps 762 mmHg 65%
    14:00 +17°C° 0.1 mm 4 mps 762 mmHg 66%
    15:00 +18°C° 0.1 mm 4 mps 762 mmHg 67%
    16:00 +17°C° 0.1 mm 4 mps 762 mmHg 71%
    17:00 +15°C° 0.1 mm 4 mps 762 mmHg 75%
    18:00 +14°C° 0.1 mm 4 mps 762 mmHg 79%
    19:00 +13°C° 0 mm 3 mps 762 mmHg 84%
    20:00 +13°C° 0 mm 2 mps 763 mmHg 88%
    21:00 +11°C° 0 mm 1 mps 763 mmHg 92%
    22:00 +11°C° 0 mm 1 mps 763 mmHg 92%
    23:00 +10°C° 0 mm 2 mps 763 mmHg 92%

    9 June, Tuesday

    Time Temperature Precipitation Wind Pressure Humidity
    00:00 +10°C° 0 mm 2 mps 763 mmHg 92%
    01:00 +9°C° 0 mm 2 mps 763 mmHg 92%
    02:00 +8°C° 0 mm 2 mps 763 mmHg 93%
    03:00 +8°C° 0 mm 2 mps 763 mmHg 93%
    04:00 +8°C° 0 mm 2 mps 763 mmHg 92%
    05:00 +9°C° 0 mm 2 mps 763 mmHg 90%
    06:00 +9°C° 0 mm 2 mps 764 mmHg 88%
    07:00 +10°C° 0 mm 2 mps 764 mmHg 81%
    08:00 +12°C° 0 mm 3 mps 764 mmHg 75%
    09:00 +13°C° 0 mm 3 mps 765 mmHg 68%
    10:00 +14°C° 0 mm 3 mps 765 mmHg 64%
    11:00 +16°C° 0 mm 2 mps 765 mmHg 61%
    12:00 +17°C° 0 mm 2 mps 765 mmHg 58%
    13:00 +17°C° 0 mm 2 mps 765 mmHg 57%
    14:00 +18°C° 0 mm 3 mps 765 mmHg 56%
    15:00 +18°C° 0 mm 3 mps 764 mmHg 56%
    16:00 +17°C° 0 mm 3 mps 765 mmHg 60%
    17:00 +17°C° 0 mm 3 mps 765 mmHg 63%
    18:00 +16°C° 0 mm 3 mps 765 mmHg 67%
    19:00 +14°C° 0 mm 3 mps 765 mmHg 74%
    20:00 +13°C° 0 mm 2 mps 765 mmHg 80%
    21:00 +10°C° 0 mm 2 mps 766 mmHg 86%
    22:00 +10°C° 0 mm 2 mps 766 mmHg 87%
    23:00 +10°C° 0 mm 1 mps 766 mmHg 87%

    10 June, Wednesday

    Time Temperature Precipitation Wind Pressure Humidity
    00:00 +10°C° 0 mm 1 mps 766 mmHg 87%
    01:00 +10°C° 0 mm 1 mps 766 mmHg 87%
    02:00 +9°C° 0 mm 1 mps 766 mmHg 87%
    03:00 +9°C° 0 mm 1 mps 766 mmHg 87%
    04:00 +10°C° 0 mm 1 mps 766 mmHg 84%
    05:00 +11°C° 0 mm 1 mps 766 mmHg 82%
    06:00 +12°C° 0 mm 1 mps 766 mmHg 80%
    07:00 +13°C° 0 mm 1 mps 767 mmHg 76%
    08:00 +15°C° 0 mm 1 mps 767 mmHg 71%
    09:00 +16°C° 0 mm 1 mps 767 mmHg 67%
    10:00 +18°C° 0 mm 1 mps 767 mmHg 64%
    11:00 +18°C° 0 mm 2 mps 767 mmHg 62%
    12:00 +18°C° 0 mm 2 mps 767 mmHg 60%
    13:00 +18°C° 0 mm 2 mps 767 mmHg 61%
    14:00 +18°C° 0 mm 2 mps 767 mmHg 61%
    15:00 +19°C° 0 mm 2 mps 767 mmHg 62%
    16:00 +18°C° 0 mm 2 mps 767 mmHg 65%
    17:00 +18°C° 0 mm 2 mps 767 mmHg 69%
    18:00 +17°C° 0 mm 3 mps 767 mmHg 73%
    19:00 +16°C° 0 mm 3 mps 767 mmHg 77%
    20:00 +14°C° 0 mm 2 mps 767 mmHg 81%
    21:00 +12°C° 0 mm 2 mps 768 mmHg 85%
    22:00 +12°C° 0 mm 2 mps 768 mmHg 86%
    23:00 +12°C° 0 mm 1 mps 768 mmHg 87%
    Show more